Regional Weather Roundup
Issued by NWS

Home | Current Version | Previous Version | Graphics & Text | Print | Product List | Glossary On
Versions: 1 2 3 4 5 6 7 8 9 10 11 12 13 14 15 16 17 18 19 20 21 22 23 24 25 26 27 28 29 30 31 32 33 34 35 36 37 38 39 40 41 42 43 44 45 46 47 48 49 50
000
ASUS43 KIND 110759
RWRIN

WEATHER ROUNDUP FOR INDIANA
NATIONAL WEATHER SERVICE INDIANAPOLIS IN
300 AM EST THU FEB 11 2016

NOTE: "FAIR" INDICATES FEW OR NO CLOUDS BELOW 12,000 FEET WITH NO
SIGNIFICANT WEATHER AND/OR OBSTRUCTIONS TO VISIBILITY.

* - STATION DOES NOT REPORT WEATHER SUCH AS PRECIPITATION OR FOG.

+ - STATION NOT QUALITY CONTROLLED BY THE NATIONAL WEATHER SERVICE.
    USE DATA WITH CAUTION...ESPECIALLY DEWPOINT AND RELATIVE
    HUMIDITY OBSERVATIONS.

INZ001>003-010>013-019-020-110900-
NORTHWEST INDIANA

CITY           SKY/WX    TMP DP  RH WIND       PRES   REMARKS
MONTICELLO +   CLOUDY     9   2  74 CALM      30.15R
RENSSELAER +   CLOUDY    14   3  62 NW6       30.16S WCI   5

$$

LMZ046-743>745-110900-
SOUTHERN LAKE MICHIGAN

STATION/POSITION TIME  TEMP    WIND        PRES    WAVE
                       AIR SEA DIR/SP/G            HT
                 (UTC) (F)     (DEG/KT/KT) (MB)    (FT)
BURNS HARBOR     0700   17     310/ 14/ 21 1021.3S
MICHIGAN CITY    0700   17     280/ 14/ 16   N/A

$$

INZ004-005-014>016-021>024-110900-
NORTH CENTRAL INDIANA

CITY           SKY/WX    TMP DP  RH WIND       PRES   REMARKS
GOSHEN         CLOUDY    13   9  84 W9        30.10R WCI   1
SOUTH BEND     FLURRIES  10   8  92 W6        30.11R WCI   0

$$

INZ006>009-017-018-025>027-110900-
NORTHEAST INDIANA

CITY           SKY/WX    TMP DP  RH WIND       PRES   REMARKS
ANGOLA *+      CLOUDY    12  10  92 CALM      30.06S
FORT WAYNE     MOCLDY    16   8  71 W8        30.11S WCI   5

$$

INZ028-029-035-036-043>045-051>053-110900-
WEST CENTRAL INDIANA

CITY           SKY/WX    TMP DP  RH WIND       PRES   REMARKS
GREENCASTLE +  CLOUDY    14   3  62 CALM      30.15S
LAFAYETTE      CLOUDY    11   8  88 W5        30.17S WCI   3
TERRE HAUTE    MOCLDY    16   8  71 NW3       30.18S

$$

INZ030>032-037>040-046>048-054>057-064-065-110900-
CENTRAL INDIANA

CITY           SKY/WX    TMP DP  RH WIND       PRES   REMARKS
GREENWOOD *+   CLOUDY    14  10  85 CALM      30.15S
INDIANAPOLIS   CLOUDY    13   6  74 W3        30.14S
-EAGLE CREEK   CLOUDY    14   7  73 W7        30.14S WCI   4
KOKOMO *+      PTCLDY     9   1  72 W7        30.13S WCI  -3
MT COMFORT *+  CLOUDY    12   7  79 W6        30.14S WCI   3
SHELBYVILLE    CLOUDY    14   8  77 CALM      30.14S

$$

INZ033-034-041-042-049-050-058-059-110900-
EAST CENTRAL INDIANA

CITY           SKY/WX    TMP DP  RH WIND       PRES   REMARKS
MUNCIE         CLEAR     11   5  77 W6        30.12R WCI   1

$$

INZ060-061-067>069-081>083-085>088-110900-
SOUTHWEST INDIANA

CITY           SKY/WX    TMP DP  RH WIND       PRES   REMARKS
EVANSVILLE     CLOUDY    24  17  74 CALM      30.19S
HUNTINGBURG *+ CLOUDY    21  16  79 N6        30.18S WCI  14

$$

INZ062-063-066-070>080-084-089>092-110900-
SOUTH CENTRAL AND SOUTHEAST INDIANA

CITY           SKY/WX    TMP DP  RH WIND       PRES   REMARKS
BLOOMINGTON    CLOUDY    14   9  80 CALM      30.15S
MADISON *+     CLEAR     12   9  85 CALM      30.17S
SEYMOUR +      MOCLDY    14  10  85 SW3       30.17S

$$




USA.gov is the U.S. government's official web portal to all federal, state and local government web resources and services.